NR5ON-13 Weather Reports


Display with metric or nautical units.
time (UTC)temp
F
wind
direction
speed
MPH
gust
MPH
rain 1hr
in
rain 24hr
in
rain mn
in
humidity
%
barometer
mb
20260508033346 56 234 0.0 0.0 0.00 0.00 0.00 16 1018.6
20260508032831 57 234 0.0 2.0 0.00 0.00 0.00 15 1018.5
20260508032337 57 234 0.0 3.0 0.00 0.00 0.00 14 1018.4
20260508031842 58 235 0.0 4.0 0.00 0.00 0.00 14 1018.2
20260508031330 58 237 0.0 4.0 0.00 0.00 0.00 14 1018.1
20260508030839 59 238 1.0 6.0 0.00 0.00 0.00 13 1018.0
20260508030343 59 177 2.0 6.0 0.00 0.00 0.00 13 1017.9
20260508025831 59 262 1.0 4.0 0.00 0.00 0.00 12 1017.9
20260508025339 60 189 0.0 5.0 0.00 0.00 0.00 12 1017.8
20260508024845 60 189 1.0 6.0 0.00 0.00 0.00 12 1017.7
20260508024330 60 204 1.0 6.0 0.00 0.00 0.00 12 1017.6
20260508023834 61 199 1.0 4.0 0.00 0.00 0.00 12 1017.6
20260508023342 61 194 1.0 4.0 0.00 0.00 0.00 12 1017.6
20260508022832 62 180 0.0 2.0 0.00 0.00 0.00 11 1017.5
20260508022340 62 198 0.0 2.0 0.00 0.00 0.00 11 1017.5
20260508021844 62 198 0.0 5.0 0.00 0.00 0.00 12 1017.4
20260508021350 63 198 1.0 7.0 0.00 0.00 0.00 10 1017.4
20260508020834 63 173 0.0 7.0 0.00 0.00 0.00 11 1017.4
20260508020340 63 196 1.0 5.0 0.00 0.00 0.00 10 1017.3
20260508015845 64 187 2.0 7.0 0.00 0.00 0.00 10 1017.3
20260508015333 64 157 2.0 7.0 0.00 0.00 0.00 10 1017.2
20260508014838 64 185 3.0 9.0 0.00 0.00 0.00 10 1017.3
20260508014343 65 182 1.0 9.0 0.00 0.00 0.00 10 1017.3
20260508013833 65 184 2.0 7.0 0.00 0.00 0.00 11 1017.3
20260508013337 65 153 3.0 7.0 0.00 0.00 0.00 10 1017.2
20260508012842 66 190 2.0 7.0 0.00 0.00 0.00 10 1017.2
20260508012326 66 171 2.0 7.0 0.00 0.00 0.00 10 1017.1
20260508011834 66 211 2.0 6.0 0.00 0.00 0.00 10 1017.1
20260508011339 67 200 1.0 9.0 0.00 0.00 0.00 10 1017.0
20260508010848 67 212 1.0 10.0 0.00 0.00 0.00 10 1017.1
20260508010332 67 196 4.0 10.0 0.00 0.00 0.00 10 1017.1
20260508005836 68 183 5.0 11.0 0.00 0.01 0.00 10 1017.1
20260508005342 68 171 2.0 7.0 0.00 0.01 0.00 11 1017.1
20260508004830 69 180 1.0 6.0 0.00 0.01 0.00 10 1017.1
20260508004338 69 202 2.0 8.0 0.00 0.01 0.00 11 1017.2
20260508003845 69 238 1.0 8.0 0.00 0.01 0.00 10 1017.1
20260508003330 68 186 1.0 9.0 0.00 0.01 0.00 11 1017.2
20260508002835 69 171 3.0 9.0 0.00 0.01 0.00 10 1017.2
20260508002340 69 193 2.0 5.0 0.00 0.01 0.00 11 1017.2
20260508001843 68 188 2.0 5.0 0.00 0.01 0.00 11 1017.4
20260508001348 68 186 1.0 8.0 0.00 0.01 0.00 11 1017.3
20260508000833 68 167 4.0 8.0 0.00 0.01 0.00 11 1017.3
20260508000338 69 253 2.0 10.0 0.00 0.01 0.00 11 1017.4
20260507235844 69 211 5.0 10.0 0.00 0.01 0.00 11 1017.4
20260507235332 69 254 3.0 7.0 0.00 0.01 0.00 12 1017.4
20260507234840 68 194 2.0 7.0 0.00 0.01 0.00 13 1017.4
20260507234345 69 188 2.0 10.0 0.00 0.01 0.00 13 1017.4
20260507233830 69 233 3.0 10.0 0.00 0.01 0.00 13 1017.4
20260507233335 69 178 4.0 10.0 0.00 0.01 0.00 13 1017.4
20260507232840 70 218 2.0 10.0 0.00 0.01 0.00 14 1017.5
20260507232345 69 232 4.0 8.0 0.00 0.01 0.00 14 1017.5
20260507231830 70 238 4.0 7.0 0.00 0.01 0.00 14 1017.6
20260507231334 69 252 2.0 7.0 0.00 0.01 0.00 16 1017.5
20260507230842 69 195 3.0 6.0 0.00 0.01 0.00 15 1017.5
20260507230331 69 193 2.0 9.0 0.00 0.01 0.00 16 1017.6
20260507225837 69 196 1.0 10.0 0.00 0.01 0.00 16 1017.5
20260507225342 69 213 4.0 10.0 0.00 0.01 0.00 16 1017.7
20260507224830 68 250 2.0 10.0 0.00 0.01 0.00 18 1017.7
20260507224335 69 182 3.0 10.0 0.00 0.01 0.00 17 1017.7
20260507223841 70 190 3.0 9.0 0.00 0.01 0.00 17 1017.7
20260507223345 70 214 4.0 9.0 0.00 0.01 0.00 17 1017.8
20260507222834 70 241 1.0 6.0 0.00 0.01 0.00 18 1017.8
20260507222340 69 280 2.0 4.0 0.00 0.01 0.00 16 1017.9
20260507221830 69 213 0.0 5.0 0.00 0.01 0.00 17 1018.0
20260507221336 68 249 1.0 8.0 0.00 0.01 0.00 16 1018.0
20260507220842 69 234 3.0 11.0 0.00 0.01 0.00 15 1018.1
20260507220346 69 250 4.0 11.0 0.00 0.01 0.00 16 1018.3
20260507215832 69 208 3.0 8.0 0.00 0.01 0.00 16 1018.2
20260507215337 69 196 2.0 10.0 0.00 0.01 0.00 16 1018.3
20260507214845 69 252 4.0 10.0 0.00 0.01 0.00 15 1018.4
20260507214333 69 265 2.0 6.0 0.00 0.01 0.00 15 1018.4
20260507213838 68 224 2.0 10.0 0.00 0.01 0.00 15 1018.5
20260507213345 68 234 2.0 11.0 0.00 0.01 0.00 13 1018.6
20260507212835 69 263 3.0 11.0 0.00 0.01 0.00 13 1018.7
20260507212340 68 306 3.0 6.0 0.00 0.01 0.00 13 1018.8
20260507211846 68 183 1.0 7.0 0.00 0.01 0.00 11 1018.8
20260507211334 67 238 3.0 10.0 0.00 0.01 0.00 12 1019.0
20260507210842 68 313 4.0 10.0 0.00 0.01 0.00 12 1019.0
20260507210348 67 261 2.0 6.0 0.00 0.01 0.00 11 1019.1
20260507205833 67 302 2.0 6.0 0.00 0.01 0.00 11 1019.2
20260507205338 67 312 2.0 9.0 0.00 0.01 0.00 12 1019.2
20260507204844 67 288 4.0 11.0 0.00 0.01 0.00 11 1019.4
20260507204331 66 294 2.0 11.0 0.00 0.01 0.00 11 1019.4
20260507203840 67 278 3.0 9.0 0.00 0.01 0.00 8 1019.5
20260507203345 67 296 2.0 13.0 0.00 0.01 0.00 8 1019.6
20260507202829 66 276 6.0 13.0 0.00 0.01 0.00 9 1019.6
20260507202335 66 330 2.0 8.0 0.00 0.01 0.00 9 1019.7
20260507201844 66 302 4.0 8.0 0.00 0.01 0.00 8 1019.8
20260507201330 66 297 3.0 8.0 0.00 0.01 0.00 8 1019.8
20260507200838 66 243 4.0 11.0 0.00 0.01 0.00 8 1019.9
20260507200343 66 277 4.0 11.0 0.00 0.01 0.00 10 1019.9
20260507195832 66 295 2.0 9.0 0.00 0.01 0.00 9 1020.0
20260507195337 65 28 3.0 9.0 0.00 0.01 0.00 10 1020.0
20260507194846 65 355 4.0 9.0 0.00 0.01 0.00 8 1020.1
20260507194331 65 276 4.0 9.0 0.00 0.01 0.00 11 1020.2
20260507193836 65 332 3.0 8.0 0.00 0.01 0.00 10 1020.3
20260507193343 64 26 4.0 10.0 0.00 0.01 0.00 10 1020.4
20260507192846 64 311 2.0 13.0 0.00 0.01 0.00 10 1020.3
20260507192332 64 271 4.0 13.0 0.00 0.01 0.00 10 1020.4
20260507191838 64 276 4.0 11.0 0.00 0.01 0.00 12 1020.4
20260507191343 64 325 3.0 10.0 0.00 0.01 0.00 12 1020.4
20260507190831 64 300 4.0 10.0 0.00 0.01 0.00 14 1020.4
20260507190339 64 263 3.0 10.0 0.00 0.01 0.00 12 1020.5
20260507185848 63 268 4.0 11.0 0.00 0.01 0.00 11 1020.4
20260507185332 62 312 3.0 12.0 0.00 0.01 0.00 14 1020.5
20260507184837 62 316 6.0 13.0 0.00 0.01 0.00 14 1020.6
20260507184341 62 9 5.0 13.0 0.00 0.01 0.00 14 1020.7
20260507183829 62 308 4.0 11.0 0.00 0.01 0.00 15 1020.7
20260507183336 61 308 5.0 13.0 0.00 0.01 0.00 15 1020.7
20260507182841 61 333 7.0 14.0 0.00 0.01 0.00 15 1020.7
20260507182345 61 317 6.0 14.0 0.00 0.01 0.00 17 1020.9
20260507181830 60 311 5.0 12.0 0.00 0.01 0.00 19 1021.0
20260507181335 60 339 7.0 12.0 0.00 0.01 0.00 19 1021.1
20260507180847 60 336 3.0 15.0 0.00 0.01 0.00 20 1021.1
20260507180331 59 320 6.0 15.0 0.00 0.01 0.00 21 1021.2
20260507175836 58 319 7.0 17.0 0.00 0.01 0.00 25 1021.3
20260507175340 59 331 10.0 17.0 0.00 0.01 0.00 24 1021.3
20260507174845 59 310 9.0 14.0 0.00 0.01 0.00 25 1021.4
20260507174329 58 310 4.0 13.0 0.00 0.01 0.00 27 1021.5
20260507173834 57 290 4.0 14.0 0.00 0.01 0.00 29 1021.6
20260507173341 57 311 6.0 15.0 0.00 0.01 0.00 29 1021.7
20260507172829 57 313 5.0 16.0 0.00 0.01 0.00 32 1021.6
20260507172333 56 296 8.0 16.0 0.00 0.01 0.00 31 1021.8
20260507171842 56 301 4.0 15.0 0.00 0.01 0.00 34 1021.8
20260507171330 55 330 5.0 15.0 0.00 0.01 0.00 36 1021.9
20260507170837 54 305 6.0 18.0 0.00 0.01 0.00 36 1021.9
20260507170342 54 284 6.0 18.0 0.00 0.01 0.00 37 1022.0
20260507165846 53 18 9.0 17.0 0.00 0.01 0.00 37 1022.0
20260507165332 53 331 8.0 18.0 0.00 0.01 0.00 37 1022.1
20260507164836 53 5 8.0 18.0 0.00 0.01 0.00 39 1022.0
20260507164341 52 296 8.0 14.0 0.00 0.01 0.00 41 1022.1
20260507163845 51 355 7.0 16.0 0.00 0.01 0.00 44 1022.2
20260507163330 50 311 9.0 18.0 0.00 0.01 0.00 43 1022.3
20260507162839 51 311 4.0 18.0 0.00 0.01 0.00 48 1022.3
20260507162346 50 15 8.0 15.0 0.00 0.01 0.00 46 1022.2
20260507161831 49 288 8.0 15.0 0.00 0.01 0.00 47 1022.3
20260507161336 49 319 6.0 14.0 0.00 0.01 0.00 50 1022.5
20260507160840 48 279 5.0 13.0 0.00 0.01 0.00 51 1022.5
20260507160348 47 46 8.0 13.0 0.00 0.01 0.00 51 1022.5
20260507155832 47 308 6.0 12.0 0.00 0.01 0.00 52 1022.7
20260507155336 46 315 6.0 13.0 0.00 0.01 0.00 54 1022.8
20260507154841 46 318 7.0 16.0 0.00 0.01 0.00 55 1022.8
20260507154326 46 287 8.0 16.0 0.00 0.01 0.00 55 1022.8
20260507153915 46 323 7.0 13.0 0.00 0.01 0.00 54 1022.7
20260507153837 46 323 7.0 13.0 0.00 0.01 0.00 54 1022.7
20260507153550 45 335 4.0 14.0 0.00 0.01 0.00 58 1022.8
20260507153342 45 335 4.0 14.0 0.00 0.01 0.00 58 1022.8
20260507152846 45 342 8.0 15.0 0.00 0.01 0.00 56 1023.0
20260507152409 44 300 4.0 12.0 0.00 0.01 0.00 57 1023.0
20260507152330 45 298 6.0 15.0 0.00 0.01 0.00 55 1022.9
20260507151835 44 300 4.0 12.0 0.00 0.01 0.00 57 1023.0
20260507151339 45 5 7.0 12.0 0.00 0.01 0.00 54 1023.0
20260507150826 45 355 6.0 10.0 0.00 0.01 0.00 54 1023.0
20260507150334 45 318 5.0 10.0 0.00 0.01 0.00 53 1023.0
20260507145841 44 311 4.0 9.0 0.00 0.01 0.00 58 1023.0
20260507145347 44 304 2.0 8.0 0.00 0.01 0.00 59 1023.1
20260507144835 44 319 4.0 8.0 0.00 0.01 0.00 61 1023.0
20260507144339 43 317 3.0 7.0 0.00 0.01 0.00 63 1023.1
20260507143844 43 325 1.0 9.0 0.00 0.01 0.00 64 1023.2
20260507143328 42 351 3.0 11.0 0.00 0.01 0.00 65 1023.2
20260507142833 42 327 6.0 11.0 0.00 0.01 0.00 64 1023.4
20260507142336 42 304 4.0 11.0 0.00 0.01 0.00 67 1023.4
20260507141841 42 320 2.0 8.0 0.00 0.01 0.00 67 1023.4
20260507141326 42 321 2.0 7.0 0.00 0.01 0.00 68 1023.4
20260507140833 41 336 2.0 7.0 0.00 0.01 0.00 70 1023.5
20260507140338 41 310 3.0 6.0 0.00 0.01 0.00 72 1023.6
20260507135827 40 348 2.0 6.0 0.00 0.01 0.00 76 1023.6
20260507135334 39 336 2.0 4.0 0.00 0.01 0.00 78 1023.6
20260507134838 38 94 0.0 0.0 0.00 0.01 0.00 79 1023.6
20260507134343 38 94 0.0 0.0 0.00 0.01 0.00 81 1023.6
20260507133847 37 94 0.0 0.0 0.00 0.01 0.00 82 1023.5
20260507133333 36 94 0.0 0.0 0.00 0.01 0.00 82 1023.5
20260507132838 36 94 0.0 0.0 0.00 0.01 0.00 82 1023.5
20260507132343 36 94 0.0 0.0 0.00 0.01 0.00 83 1023.5
20260507131847 35 94 0.0 0.0 0.00 0.01 0.00 84 1023.5
20260507131331 34 94 0.0 0.0 0.00 0.01 0.00 85 1023.6
20260507130836 34 94 0.0 0.0 0.00 0.01 0.00 85 1023.6
20260507130344 34 94 0.0 0.0 0.00 0.01 0.00 86 1023.6
20260507125849 33 94 0.0 2.0 0.00 0.01 0.00 86 1023.7
20260507125332 33 94 0.0 2.0 0.00 0.01 0.00 87 1023.7
20260507124838 32 94 0.0 1.0 0.00 0.01 0.00 87 1023.6
20260507124344 32 94 0.0 1.0 0.00 0.01 0.00 88 1023.6
20260507123828 32 94 0.0 1.0 0.00 0.01 0.00 88 1023.5
20260507123333 32 94 0.0 1.0 0.00 0.01 0.00 88 1023.6
20260507122837 31 94 0.0 0.0 0.00 0.01 0.00 89 1023.6
20260507122342 31 94 0.0 0.0 0.00 0.01 0.00 89 1023.6
20260507121846 31 94 0.0 0.0 0.00 0.01 0.00 89 1023.6
20260507121335 31 94 0.0 0.0 0.00 0.01 0.00 89 1023.6
20260507120840 31 94 0.0 0.0 0.00 0.01 0.00 89 1023.6
20260507120325 31 94 0.0 0.0 0.00 0.01 0.00 88 1023.6
20260507115833 31 94 0.0 0.0 0.00 0.01 0.00 88 1023.6
20260507115337 30 94 0.0 0.0 0.00 0.01 0.00 88 1023.6
20260507114842 30 94 0.0 0.0 0.00 0.01 0.00 87 1023.4
20260507114347 30 94 0.0 0.0 0.00 0.01 0.00 87 1023.6
20260507113831 30 94 0.0 0.0 0.00 0.01 0.00 87 1023.5
20260507113336 30 94 0.0 0.0 0.00 0.01 0.00 86 1023.5
20260507112842 30 94 0.0 0.0 0.00 0.01 0.00 86 1023.5
20260507112334 30 94 0.0 0.0 0.00 0.01 0.00 86 1023.5
20260507111838 31 94 0.0 0.0 0.00 0.01 0.00 85 1023.4
20260507111343 31 94 0.0 0.0 0.00 0.01 0.00 85 1023.4
20260507110847 31 94 0.0 0.0 0.00 0.01 0.00 85 1023.4
20260507110332 31 94 0.0 0.0 0.00 0.01 0.00 84 1023.4
20260507105837 31 94 0.0 0.0 0.00 0.02 0.00 83 1023.4
20260507105342 31 94 0.0 0.0 0.00 0.02 0.00 83 1023.3
20260507104847 32 94 0.0 0.0 0.00 0.02 0.00 83 1023.4
20260507104332 32 94 0.0 0.0 0.00 0.02 0.00 83 1023.5
20260507103837 32 94 0.0 0.0 0.00 0.02 0.00 83 1023.5
20260507103342 32 94 0.0 0.0 0.00 0.02 0.00 82 1023.5
20260507102831 32 94 0.0 0.0 0.00 0.02 0.00 81 1023.5
20260507102336 32 94 0.0 0.0 0.00 0.02 0.00 81 1023.4
20260507101840 33 94 0.0 0.0 0.00 0.02 0.00 81 1023.4
20260507101345 33 94 0.0 0.0 0.00 0.02 0.00 81 1023.5
20260507100829 33 94 0.0 0.0 0.00 0.02 0.00 81 1023.5
20260507100334 33 94 0.0 0.0 0.00 0.02 0.00 81 1023.4
20260507095839 33 94 0.0 0.0 0.00 0.02 0.00 81 1023.4
20260507095344 33 94 0.0 0.0 0.00 0.02 0.00 81 1023.4
20260507094828 33 94 0.0 0.0 0.00 0.02 0.00 80 1023.5
20260507094333 33 94 0.0 0.0 0.00 0.02 0.00 79 1023.5
20260507093825 33 94 0.0 0.0 0.00 0.02 0.00 79 1023.5
20260507093333 33 94 0.0 0.0 0.00 0.02 0.00 79 1023.5
20260507092838 33 94 0.0 0.0 0.00 0.02 0.00 79 1023.5
20260507092343 33 94 0.0 0.0 0.00 0.02 0.00 78 1023.4
20260507091828 33 94 0.0 0.0 0.00 0.02 0.00 78 1023.5
20260507091337 33 94 0.0 0.0 0.00 0.02 0.00 79 1023.4
20260507090842 33 94 0.0 0.0 0.00 0.02 0.00 78 1023.4
20260507090329 33 94 0.0 0.0 0.00 0.02 0.00 78 1023.5
20260507085837 34 94 0.0 0.0 0.00 0.02 0.00 78 1023.4
20260507085329 34 94 0.0 0.0 0.00 0.02 0.00 78 1023.4
20260507084835 34 94 0.0 0.0 0.00 0.02 0.00 77 1023.3
20260507084342 34 94 0.0 0.0 0.00 0.02 0.00 77 1023.3
20260507083847 34 94 0.0 0.0 0.00 0.02 0.00 76 1023.2
20260507083332 35 94 0.0 0.0 0.00 0.02 0.00 75 1023.3
20260507082837 35 94 0.0 0.0 0.00 0.02 0.00 75 1023.2
20260507082342 35 94 0.0 0.0 0.00 0.02 0.00 74 1023.2
20260507081847 36 94 0.0 0.0 0.00 0.02 0.00 74 1023.2
20260507081331 36 94 0.0 0.0 0.00 0.02 0.00 73 1023.2
20260507080835 36 94 0.0 0.0 0.00 0.02 0.00 72 1023.2
20260507080340 36 94 0.0 0.0 0.00 0.02 0.00 72 1023.1
20260507075829 37 94 0.0 0.0 0.00 0.02 0.00 72 1023.1
20260507075333 37 94 0.0 0.0 0.00 0.02 0.00 71 1023.1
20260507074838 37 94 0.0 0.0 0.00 0.02 0.00 70 1023.1
20260507074342 37 94 0.0 1.0 0.00 0.02 0.00 70 1023.0
20260507073830 37 94 0.0 5.0 0.00 0.02 0.00 69 1023.0
20260507073338 38 94 1.0 5.0 0.00 0.02 0.00 67 1023.0
20260507072843 38 96 0.0 6.0 0.00 0.02 0.00 67 1023.0
20260507072328 37 96 2.0 6.0 0.00 0.02 0.00 69 1022.8
20260507071833 37 61 1.0 4.0 0.00 0.02 0.00 74 1022.7
20260507071338 38 310 0.0 3.0 0.00 0.02 0.00 76 1022.6
20260507070847 38 310 0.0 0.0 0.00 0.02 0.00 74 1022.6
20260507070332 38 310 0.0 0.0 0.00 0.02 0.00 74 1022.6
20260507065836 38 310 0.0 1.0 0.00 0.02 0.00 73 1022.6
20260507065344 38 310 0.0 1.0 0.00 0.02 0.00 74 1022.6
20260507064832 38 310 0.0 1.0 0.00 0.02 0.00 75 1022.6
20260507064339 38 310 0.0 3.0 0.00 0.02 0.00 75 1022.5
20260507063844 38 310 1.0 2.0 0.00 0.02 0.00 74 1022.4
20260507063329 38 310 0.0 2.0 0.00 0.02 0.00 73 1022.4
20260507062837 38 310 0.0 2.0 0.00 0.02 0.00 72 1022.3
20260507062341 38 310 0.0 3.0 0.00 0.02 0.00 71 1022.3
20260507061830 38 310 1.0 3.0 0.00 0.02 0.00 71 1022.3
20260507061334 38 310 1.0 3.0 0.00 0.02 0.00 70 1022.3
20260507060839 38 310 1.0 2.0 0.00 0.02 0.00 69 1022.3
20260507060344 38 310 0.0 1.0 0.00 0.02 0.00 68 1022.2
20260507055829 39 310 0.0 2.0 0.00 0.03 0.02 68 1022.2
20260507055334 39 310 1.0 4.0 0.00 0.03 0.02 68 1022.1
20260507054842 39 310 1.0 3.0 0.00 0.03 0.02 67 1022.0
20260507054347 39 310 0.0 0.0 0.00 0.03 0.02 67 1022.0
20260507053832 39 310 0.0 0.0 0.00 0.03 0.02 66 1021.9
20260507053337 39 310 0.0 0.0 0.00 0.03 0.02 66 1021.9
20260507052846 40 310 0.0 0.0 0.00 0.03 0.02 66 1021.9
20260507052331 40 310 0.0 0.0 0.00 0.03 0.02 65 1021.9
20260507051836 40 310 0.0 0.0 0.00 0.03 0.02 64 1021.8
20260507051340 40 310 0.0 0.0 0.00 0.03 0.02 63 1021.7
20260507050828 41 310 0.0 0.0 0.00 0.03 0.02 62 1021.7
20260507050332 41 310 0.0 0.0 0.00 0.03 0.02 63 1021.7
20260507045838 41 310 0.0 0.0 0.00 0.04 0.02 62 1021.6
20260507045343 41 310 0.0 0.0 0.00 0.04 0.02 62 1021.6
20260507044831 41 310 0.0 0.0 0.00 0.04 0.02 63 1021.6
20260507044336 42 310 0.0 0.0 0.00 0.04 0.02 62 1021.5
20260507043844 42 310 0.0 0.0 0.00 0.04 0.02 61 1021.4
20260507043329 42 310 0.0 0.0 0.00 0.04 0.02 60 1021.5
20260507042836 43 310 0.0 0.0 0.00 0.04 0.02 59 1021.4
20260507042342 43 310 0.0 0.0 0.00 0.04 0.02 58 1021.2
20260507041827 44 310 0.0 0.0 0.00 0.04 0.02 56 1021.1
20260507041333 44 310 0.0 2.0 0.00 0.04 0.02 55 1021.0
20260507040837 45 310 0.0 4.0 0.00 0.04 0.02 54 1020.9
20260507040345 45 310 1.0 6.0 0.00 0.04 0.02 53 1020.9
20260507035829 45 310 2.0 6.0 0.00 0.05 0.02 52 1020.9
20260507035334 45 233 1.0 3.0 0.00 0.05 0.02 52 1020.8
20260507034843 45 233 2.0 3.0 0.00 0.05 0.02 52 1020.7
20260507034327 45 232 1.0 3.0 0.00 0.05 0.02 53 1020.7
20260507033833 45 232 0.0 3.0 0.00 0.05 0.02 52 1020.6